When you browse on this site, cookies collect data to enhance your experience and personalize the content and advertising you see.
Visit our Privacy Policy to learn more. By continuing to use the site, you agree to this use of cookies and data.
  • In Sweden
  • List of Countries
  • For 7 days
  • Water Temperature
  • Weather Map
  • Weather Widgets
  • user-avatar
    Login

    Hourly Weather Tarfaya

    Today, 24 February, Monday

    Time Temperature Precipitation Wind Pressure Humidity
    00:00 +31°C° 0 mm 10 mps 764 mmHg 10%
    01:00 +31°C° 0 mm 10 mps 764 mmHg 10%
    02:00 +29°C° 0 mm 10 mps 764 mmHg 11%
    03:00 +29°C° 0 mm 9 mps 764 mmHg 13%
    04:00 +28°C° 0 mm 8 mps 764 mmHg 14%
    05:00 +27°C° 0 mm 5 mps 765 mmHg 13%
    06:00 +27°C° 0 mm 6 mps 765 mmHg 13%
    07:00 +27°C° 0 mm 6 mps 766 mmHg 13%
    08:00 +28°C° 0 mm 7 mps 766 mmHg 13%
    09:00 +29°C° 0 mm 8 mps 767 mmHg 12%
    10:00 +31°C° 0 mm 8 mps 767 mmHg 11%
    11:00 +32°C° 0 mm 7 mps 767 mmHg 11%
    12:00 +31°C° 0 mm 8 mps 767 mmHg 18%
    13:00 +29°C° 0 mm 8 mps 766 mmHg 25%
    14:00 +28°C° 0 mm 8 mps 765 mmHg 32%
    15:00 +29°C° 0 mm 8 mps 765 mmHg 31%
    16:00 +29°C° 0 mm 8 mps 765 mmHg 31%
    17:00 +29°C° 0 mm 8 mps 766 mmHg 31%
    18:00 +29°C° 0 mm 7 mps 766 mmHg 30%
    19:00 +29°C° 0 mm 7 mps 766 mmHg 28%
    20:00 +29°C° 0 mm 7 mps 767 mmHg 27%
    21:00 +28°C° 0 mm 7 mps 767 mmHg 28%
    22:00 +27°C° 0 mm 8 mps 767 mmHg 29%
    23:00 +26°C° 0 mm 8 mps 767 mmHg 30%

    Tomorrow, 25 February, Tuesday

    Time Temperature Precipitation Wind Pressure Humidity
    00:00 +24°C° 0 mm 8 mps 766 mmHg 29%
    01:00 +23°C° 0 mm 9 mps 766 mmHg 28%
    02:00 +22°C° 0 mm 9 mps 766 mmHg 27%
    03:00 +22°C° 0 mm 8 mps 766 mmHg 27%
    04:00 +22°C° 0 mm 8 mps 766 mmHg 27%
    05:00 +21°C° 0 mm 8 mps 766 mmHg 26%
    06:00 +22°C° 0 mm 7 mps 766 mmHg 25%
    07:00 +23°C° 0 mm 7 mps 766 mmHg 24%
    08:00 +24°C° 0 mm 7 mps 766 mmHg 23%
    09:00 +27°C° 0 mm 7 mps 766 mmHg 20%
    10:00 +29°C° 0 mm 6 mps 766 mmHg 17%
    11:00 +32°C° 0 mm 6 mps 767 mmHg 15%
    12:00 +30°C° 0 mm 7 mps 766 mmHg 16%
    13:00 +30°C° 0 mm 7 mps 765 mmHg 17%
    14:00 +29°C° 0 mm 7 mps 765 mmHg 19%
    15:00 +28°C° 0 mm 7 mps 764 mmHg 25%
    16:00 +26°C° 0 mm 7 mps 764 mmHg 31%
    17:00 +23°C° 0 mm 7 mps 764 mmHg 37%
    18:00 +22°C° 0 mm 7 mps 765 mmHg 45%
    19:00 +21°C° 0 mm 7 mps 765 mmHg 52%
    20:00 +18°C° 0 mm 7 mps 766 mmHg 60%
    21:00 +18°C° 0 mm 7 mps 766 mmHg 62%
    22:00 +18°C° 0 mm 8 mps 766 mmHg 65%
    23:00 +17°C° 0 mm 8 mps 766 mmHg 67%

    Day after tomorrow, 26 February, Wednesday

    Time Temperature Precipitation Wind Pressure Humidity
    00:00 +17°C° 0 mm 8 mps 766 mmHg 70%
    01:00 +17°C° 0 mm 8 mps 765 mmHg 74%
    02:00 +16°C° 0 mm 8 mps 765 mmHg 77%
    03:00 +16°C° 0 mm 8 mps 765 mmHg 77%
    04:00 +16°C° 0 mm 8 mps 765 mmHg 78%
    05:00 +16°C° 0 mm 8 mps 765 mmHg 79%
    06:00 +16°C° 0 mm 8 mps 765 mmHg 75%
    07:00 +17°C° 0 mm 8 mps 765 mmHg 71%
    08:00 +17°C° 0 mm 8 mps 765 mmHg 67%
    09:00 +18°C° 0 mm 8 mps 765 mmHg 59%
    10:00 +21°C° 0 mm 8 mps 765 mmHg 52%
    11:00 +22°C° 0 mm 7 mps 765 mmHg 45%
    12:00 +22°C° 0 mm 7 mps 765 mmHg 44%
    13:00 +22°C° 0 mm 7 mps 764 mmHg 43%
    14:00 +22°C° 0 mm 6 mps 764 mmHg 42%
    15:00 +21°C° 0 mm 6 mps 763 mmHg 49%
    16:00 +20°C° 0 mm 6 mps 763 mmHg 56%
    17:00 +19°C° 0 mm 6 mps 763 mmHg 62%
    18:00 +19°C° 0 mm 6 mps 764 mmHg 67%
    19:00 +17°C° 0 mm 6 mps 764 mmHg 73%
    20:00 +16°C° 0 mm 7 mps 765 mmHg 78%
    21:00 +16°C° 0 mm 6 mps 764 mmHg 79%
    22:00 +16°C° 0 mm 6 mps 764 mmHg 81%
    23:00 +16°C° 0 mm 6 mps 764 mmHg 82%

    27 February, Thursday

    Time Temperature Precipitation Wind Pressure Humidity
    00:00 +15°C° 0 mm 6 mps 764 mmHg 84%
    01:00 +15°C° 0 mm 6 mps 763 mmHg 87%
    02:00 +15°C° 0 mm 6 mps 763 mmHg 89%
    03:00 +15°C° 0 mm 6 mps 763 mmHg 88%
    04:00 +15°C° 0 mm 5 mps 763 mmHg 87%
    05:00 +16°C° 0 mm 5 mps 763 mmHg 86%
    06:00 +16°C° 0 mm 5 mps 763 mmHg 81%
    07:00 +17°C° 0 mm 5 mps 764 mmHg 76%
    08:00 +18°C° 0 mm 4 mps 764 mmHg 71%
    09:00 +19°C° 0 mm 4 mps 764 mmHg 67%
    10:00 +20°C° 0 mm 3 mps 764 mmHg 63%
    11:00 +20°C° 0 mm 3 mps 764 mmHg 59%
    12:00 +21°C° 0 mm 3 mps 763 mmHg 56%
    13:00 +22°C° 0 mm 3 mps 763 mmHg 53%
    14:00 +22°C° 0 mm 3 mps 762 mmHg 50%
    15:00 +22°C° 0 mm 3 mps 762 mmHg 54%
    16:00 +21°C° 0 mm 3 mps 762 mmHg 58%
    17:00 +20°C° 0 mm 4 mps 762 mmHg 63%
    18:00 +19°C° 0 mm 4 mps 762 mmHg 68%
    19:00 +18°C° 0 mm 3 mps 763 mmHg 72%
    20:00 +18°C° 0 mm 3 mps 763 mmHg 77%
    21:00 +17°C° 0 mm 3 mps 763 mmHg 79%
    22:00 +17°C° 0 mm 3 mps 763 mmHg 81%
    23:00 +16°C° 0 mm 3 mps 763 mmHg 83%

    28 February, Friday

    Time Temperature Precipitation Wind Pressure Humidity
    00:00 +16°C° 0 mm 3 mps 763 mmHg 85%
    01:00 +14°C° 0 mm 3 mps 763 mmHg 87%
    02:00 +15°C° 0 mm 2 mps 763 mmHg 89%
    03:00 +14°C° 0 mm 2 mps 763 mmHg 90%
    04:00 +14°C° 0 mm 1 mps 762 mmHg 91%
    05:00 +13°C° 0 mm 1 mps 762 mmHg 93%
    06:00 +14°C° 0 mm 1 mps 763 mmHg 89%
    07:00 +15°C° 0 mm 1 mps 763 mmHg 85%
    08:00 +15°C° 0 mm 0 mps 764 mmHg 81%
    09:00 +19°C° 0 mm 1 mps 764 mmHg 71%
    10:00 +21°C° 0 mm 1 mps 764 mmHg 62%
    11:00 +22°C° 0 mm 1 mps 764 mmHg 53%
    12:00 +23°C° 0 mm 2 mps 764 mmHg 51%
    13:00 +24°C° 0 mm 3 mps 763 mmHg 49%
    14:00 +23°C° 0 mm 4 mps 763 mmHg 47%
    15:00 +22°C° 0 mm 4 mps 763 mmHg 54%
    16:00 +21°C° 0 mm 5 mps 763 mmHg 60%
    17:00 +20°C° 0 mm 5 mps 763 mmHg 67%
    18:00 +19°C° 0 mm 6 mps 764 mmHg 72%
    19:00 +17°C° 0 mm 6 mps 764 mmHg 77%
    20:00 +16°C° 0 mm 6 mps 765 mmHg 82%
    21:00 +16°C° 0 mm 6 mps 765 mmHg 83%
    22:00 +16°C° 0 mm 7 mps 765 mmHg 85%
    23:00 +16°C° 0 mm 7 mps 765 mmHg 86%

    29 February, Saturday

    Time Temperature Precipitation Wind Pressure Humidity
    00:00 +16°C° 0 mm 7 mps 765 mmHg 87%
    01:00 +16°C° 0 mm 7 mps 765 mmHg 89%
    02:00 +15°C° 0 mm 7 mps 765 mmHg 91%
    03:00 +16°C° 0 mm 7 mps 764 mmHg 87%
    04:00 +16°C° 0 mm 7 mps 764 mmHg 83%
    05:00 +16°C° 0 mm 6 mps 764 mmHg 80%
    06:00 +16°C° 0 mm 6 mps 764 mmHg 78%
    07:00 +17°C° 0 mm 7 mps 765 mmHg 76%
    08:00 +17°C° 0 mm 7 mps 765 mmHg 74%
    09:00 +18°C° 0 mm 7 mps 766 mmHg 68%
    10:00 +20°C° 0 mm 7 mps 766 mmHg 62%
    11:00 +21°C° 0 mm 7 mps 766 mmHg 56%
    12:00 +21°C° 0 mm 7 mps 765 mmHg 56%
    13:00 +21°C° 0 mm 8 mps 765 mmHg 56%
    14:00 +21°C° 0 mm 8 mps 764 mmHg 56%
    15:00 +20°C° 0 mm 8 mps 764 mmHg 61%
    16:00 +18°C° 0 mm 8 mps 764 mmHg 66%
    17:00 +17°C° 0 mm 7 mps 764 mmHg 71%
    18:00 +17°C° 0 mm 7 mps 764 mmHg 74%
    19:00 +17°C° 0 mm 7 mps 764 mmHg 77%
    20:00 +16°C° 0 mm 7 mps 765 mmHg 81%
    21:00 +16°C° 0 mm 7 mps 765 mmHg 83%
    22:00 +16°C° 0 mm 7 mps 765 mmHg 85%
    23:00 +16°C° 0 mm 8 mps 765 mmHg 88%
    Show more